sat.trackr.live / text

‹ back to catalog

STARLINK-32822

NORAD 62868 · 2025-022Q

PAYLOAD ACTIVE UNKNOWN

§ Identity

Operator
Country
US
Launch date
2025-02-01
Launch site
AFWTR
Launch vehicle
Mass (kg)
RCS (m²)

Purposes: comms

External: N2YO · Heavens-Above · Gunter

§ Orbital elements

Epoch: 2026-05-25T03:14:26.076192Z

Period
94.10 min
Inclination
53.1571°
Eccentricity
0.0001038
Mean motion
15.30225605 rev/d
Perigee alt
474.4 km
Apogee alt
475.8 km
Semi-major
6,853.3 km
B*
4.8442e-4
RAAN
134.5728°
Arg perigee
89.3717°
Mean anomaly
270.7402°
Rev number
7,360

§ Raw data

STARLINK-328221 62868U 25022Q   26145.13502403  .00014026  00000+0  48442-3 0  99942 62868  53.1571 134.5728 0001038  89.3717 270.7402 15.30225605 73608

JSON: /api/v1/satellites/62868 · /tle

For live sub-satellite position, see the globe view (requires WebGL).

§ Visibility from observer

Set your observer location to see the next 7 days of passes ≥ 10°. The values pass through the URL so the page stays shareable.

No JS? Fill the form by hand. The geolocation button needs JavaScript.